Home > Weather > Leibnitz > Past weeks

Flag for Austria Weather for the Past 2 Weeks in Leibnitz, Styria, Austria

Now
43 °F

Quite cool.


Feels Like: N/A
Forecast: 32 / 48 °F
Wind: N/A

Location: Graz-Thalerhof-Flughafen

Current Time: Feb 9, 2016 at 3:11:07 AM

Latest Report: Feb 9, 2016 at 1:00 AM


Visibility: 31 mi

Pressure: 29.85 "Hg

Humidity: 69%

Dew point: 33 °F

Location of LeibnitzLocation

Historic Weather in Leibnitz — Graph

°F

Leibnitz Temperature Yesterday

Maximum temperature yesterday: 54 °F (at 2:00 PM)
Minimum temperature yesterday: 37 °F (at 8:00 AM)
Average temperature yesterday: 46 °F

High & Low Weather Summary for the Past Weeks

 TemperatureHumidityPressure
High60 °F (Jan 28, 3:00 PM)100% (Jan 30, 2:00 AM)30.48 "Hg (Jan 30, 2:00 AM)
Low25 °F (Jan 27, 8:00 AM)31% (Feb 4, 1:00 PM)29.80 "Hg (Feb 8, 4:00 PM)
Average40 °F77%30.18 "Hg
* Reported Jan 25 5:00 AM — Feb 9 1:00 AM, Leibnitz, Weather by CustomWeather, © 2016

Note: Actual official high and low records may vary slightly from our data, if they occured in-between our weather recording intervals... More about our weather records

Advertising

Leibnitz Weather History for the Previous 24 Hours

 ConditionsComfort  
Time TempWeatherWind HumidityBarometerVisibility
1:00 AM
Tue, Feb 9
43 °FQuite cool.N/A69%29.85 "Hg31 mi
12:00 AM50 °FPassing clouds.N/A55%29.82 "Hg31 mi
10:00 PM
Mon, Feb 8
49 °FPassing clouds.5 mph72%29.81 "Hg22 mi
9:00 PM45 °FPassing clouds.N/A77%29.82 "Hg31 mi
8:00 PM50 °FPassing clouds.N/A70%29.82 "Hg31 mi
7:00 PM50 °FPassing clouds.6 mph72%29.81 "Hg31 mi
6:00 PM52 °FOvercast.6 mph68%29.80 "Hg31 mi
5:00 PM53 °FOvercast.N/A69%29.81 "Hg31 mi
4:00 PM53 °FOvercast.5 mph68%29.80 "Hg31 mi
3:00 PM52 °FOvercast.7 mph69%29.81 "Hg28 mi
2:00 PM54 °FOvercast.5 mph65%29.84 "Hg28 mi
1:00 PM51 °FPartly sunny.N/A66%29.88 "Hg17 mi
12:00 PM45 °FOvercast.N/A81%29.93 "Hg12 mi
11:00 AM43 °FOvercast.No wind85%29.96 "Hg10 mi
10:00 AM42 °FOvercast.N/A88%29.96 "Hg4 mi
9:00 AM40 °FOvercast.N/A89%29.96 "Hg14 mi
8:00 AM37 °FOvercast.N/A91%29.97 "Hg12 mi
7:00 AM39 °FOvercast.N/A90%29.97 "Hg19 mi
6:00 AM38 °FOvercast.N/A90%29.96 "Hg25 mi
5:00 AM38 °FOvercast.N/A91%29.96 "Hg25 mi
Weather by CustomWeather, © 2016

See weather overviewHow to use our weather pages